This is the latest recevied weather packets stored in our database for station/object OE-11007. If no packets are shown the sender has not sent any weather packets the latest 10 day(s).
| Time | Temp. | Humidity | Pressure | Rain* | Wind** | Luminosity | Snow |
|---|---|---|---|---|---|---|---|
| 1787622911 | 15° C | 60% | 1011.9 hPa | 0 mm | - | 0 W/m² | - |
| 1787622084 | 15.56° C | 58% | 1012.2 hPa | 0 mm | - | 0 W/m² | - |
| 1787621711 | 15.56° C | 58% | 1012.1 hPa | 0 mm | - | 0 W/m² | - |
| 1787621111 | 15.56° C | 59% | 1012.2 hPa | 0 mm | - | 0 W/m² | - |
| 1787620283 | 15° C | 60% | 1012.1 hPa | 0 mm | - | 0 W/m² | - |
| 1787619911 | 15.56° C | 59% | 1012.1 hPa | 0 mm | - | 0 W/m² | - |
| 1787619310 | 15° C | 60% | 1012.7 hPa | 0 mm | - | 0 W/m² | - |
| 1787618483 | 15.56° C | 59% | 1012.7 hPa | 0 mm | - | 0 W/m² | - |
| 1787618111 | 15.56° C | 58% | 1013.1 hPa | 0 mm | - | 0 W/m² | - |
| 1787617511 | 15.56° C | 59% | 1013.1 hPa | 0 mm | - | 0 W/m² | - |
| 1787616684 | 15° C | 61% | 1013 hPa | 0 mm | - | 0 W/m² | - |
| 1787616311 | 15° C | 62% | 1013.3 hPa | 0 mm | - | 0 W/m² | - |
| 1787615711 | 15° C | 61% | 1013.7 hPa | 0 mm | - | 0 W/m² | - |
| 1787614883 | 16.11° C | 56% | 1014 hPa | 0 mm | - | 0 W/m² | - |
| 1787614511 | 16.11° C | 54% | 1014.1 hPa | 0 mm | - | 0 W/m² | - |
| 1787613911 | 16.11° C | 55% | 1014 hPa | 0 mm | - | 0 W/m² | - |
| 1787613311 | 16.11° C | 54% | 1013.9 hPa | 0 mm | - | 0 W/m² | - |
| 1787612710 | 16.11° C | 54% | 1014 hPa | 0 mm | - | 0 W/m² | - |
| 1787612111 | 16.11° C | 55% | 1014.2 hPa | 0 mm | - | 0 W/m² | - |
| 1787611284 | 16.11° C | 55% | 1014.4 hPa | 0 mm | - | 0 W/m² | - |
| 1787610910 | 16.11° C | 55% | 1014.5 hPa | 0 mm | - | 0 W/m² | - |
| 1787610311 | 16.11° C | 54% | 1014.6 hPa | 0 mm | - | 0 W/m² | - |
| 1787609484 | 16.11° C | 54% | 1014.8 hPa | 0 mm | - | 0 W/m² | - |
| 1787609111 | 16.67° C | 53% | 1014.6 hPa | 0 mm | - | 0 W/m² | - |
| 1787607684 | 16.67° C | 52% | 1015.1 hPa | 0 mm | - | 0 W/m² | - |
* Rain latest hour (hover to see other rain measurements)
** Current wind speed in m/s (hover to see current wind gust speed)